Regional Weather Roundup
Issued by NWS State College, PA

Home | Current Version | Previous Version | Text Only | Print | Product List | Glossary On
Versions: 1 2 3 4 5 6 7 8 9 10 11 12 13 14 15 16 17 18 19 20 21 22 23 24 25 26 27 28 29 30 31 32 33 34 35 36 37 38 39 40 41 42 43 44 45 46 47 48 49 50
000
ASUS41 KCTP 161110
RWRCTP

REGIONAL WEATHER ROUNDUP
NATIONAL WEATHER SERVICE STATE COLLEGE PA
700 AM EDT TUE SEP 16 2014

Note: "fair" indicates few or no clouds below 12,000 feet with no
significant weather and/or obstructions to visibility.

* = STATION THAT DOES NOT REPORT PRECIPITATION /E.G. RAIN...SNOW...ETC/
    THUNDER OR FOG.

PAZ002>004-007>009-013>016-020>023-029>032-161200-
WESTERN PENNSYLVANIA

CITY           SKY/WX    TMP DP  RH WIND       PRES   REMARKS
ERIE           CLOUDY    54  51  90 SW3       30.09R
MEADVILLE      CLOUDY    51  49  92 CALM      30.10R
FRANKLIN*      CLOUDY    50  46  87 CALM      30.10R
NEW CASTLE     CLOUDY    52  52 100 CALM      30.11R
BEAVER COUNTY  CLOUDY    52  52 100 NW5       30.10
BUTLER*        CLOUDY    54  50  87 NW3       30.10S
PITTSBURGH INT CLOUDY    54  53  97 NW7       30.09R
PITTSBURGH     CLOUDY    54  51  90 NW8       30.08R
INDIANA*       CLOUDY    55  54  94 NW8       30.11R FOG
LATROBE        CLOUDY    55  55 100 SW6       30.09R
WASHINGTON CO* CLOUDY    55  52  88 N8        30.10R
$$

PAZ004>006-010>012-017>019-024>028-033>037-041-042-045-046-049>053-161200-
CENTRAL PENNSYLVANIA

CITY           SKY/WX    TMP DP  RH WIND       PRES   REMARKS
BRADFORD       CLOUDY    49  47  93 NW5       30.07R
DUBOIS         CLOUDY    52  51  97 NW8       30.06R
CLEARFIELD     CLOUDY    53  53 100 CALM      30.06R FOG
JOHNSTOWN      CLOUDY    53  51  93 W10       30.06R FOG
ALTOONA        CLOUDY    55  53  93 CALM      30.05R
STATE COLLEGE  CLOUDY    54  52  94 CALM      30.03R
WILLIAMSPORT   CLOUDY    55  52  89 NW3       30.02R
SELINSGROVE    CLOUDY    54  52  93 CALM      30.02S FOG
FT INDIANTOWN  MOCLDY    55  55 100 CALM      30.00F FOG
CAPITAL CITY   PTCLDY    55  53  93 CALM      30.01S FOG
HARRISBURG     PTCLDY    58  54  86 CALM      29.99F FOG
YORK           FOG       49  48  97 CALM      30.01R VSB 1/2
$$

PAZ038>040-043-044-047-048-054-055-060>062-067>071-161200-
EASTERN PENNSYLVANIA

CITY           SKY/WX    TMP DP  RH WIND       PRES   REMARKS
SCRANTON       LGT RAIN  54  51  90 E5        30.01F
MOUNT POCONO   LGT RAIN  53  50  89 CALM      30.02S
ALLENTOWN      CLOUDY    55  52  88 CALM      30.01S
QUAKERTOWN*    CLOUDY    55  54  94 CALM      30.02R
READING        CLOUDY    57  54  89 CALM      29.99S
LANCASTER      PTCLDY    56  54  93 CALM      30.00F FOG
COATESVILLE    PTSUNNY   55  55 100 CALM      30.01S FOG
POTTSTOWN      CLOUDY    55  54  96 CALM      30.02R
BLUE BELL      CLOUDY    59  59 100 CALM      29.99R
DOYLESTOWN     CLOUDY    54  54 100 CALM      29.99S
WILLOW GROVE   NOT AVBL
NORTH PHILA    LGT RAIN  61  56  83 CALM      30.01R
PHILADELPHIA   LGT RAIN  62  59  90 W3        30.00R
$$



USA.gov is the U.S. government's official web portal to all federal, state and local government web resources and services.